Location: Arezzo
(43.4170°N, 11.8830°E)
Time: 06:41:58
(UTC+01:00)

ISS - Visible Passes

Search period start: 20 January 2019 00:00
Search period end: 30 January 2019 00:00
Orbit: 404 x 410 km, 51.6° (Epoch: 20 January)

Date Brightness Start Highest point End Pass type
(mag) Time Alt. Az. Time Alt. Az. Time Alt. Az.
20 Jan -0.7 19:34:52 10° SSW 19:34:52 10° SSW 19:34:52 10° SSW visible
21 Jan -1.9 18:44:14 10° S 18:46:04 19° SSE 18:46:04 19° SSE visible
22 Jan -1.4 17:54:38 10° SSE 17:55:33 11° SE 17:56:29 10° ESE visible
22 Jan -1.8 19:28:17 10° SW 19:29:55 27° SW 19:29:55 27° SW visible
23 Jan -3.4 18:37:06 10° SW 18:40:15 46° SE 18:40:56 39° ESE visible
24 Jan -2.4 17:46:12 10° SSW 17:48:59 25° SE 17:51:47 10° E visible
24 Jan -2.4 19:22:11 10° WSW 19:24:36 38° WNW 19:24:36 38° WNW visible
25 Jan -3.8 18:30:37 10° WSW 18:33:55 76° NNW 18:35:27 29° NE visible
25 Jan -0.2 20:08:08 10° WNW 20:08:11 10° WNW 20:08:11 10° WNW visible
26 Jan -2.2 19:16:20 10° W 19:18:57 28° NNW 19:18:57 28° NNW visible
27 Jan -2.8 18:24:33 10° W 18:27:40 39° NNW 18:29:41 19° NE visible
27 Jan -0.4 20:02:21 10° NW 20:02:24 10° NW 20:02:24 10° NW visible
28 Jan -1.9 19:10:33 10° WNW 19:13:05 21° NNW 19:13:05 21° NNW visible
29 Jan -2.2 18:18:41 10° WNW 18:21:30 25° NNW 18:23:44 14° NE visible
29 Jan -0.6 19:56:17 10° NW 19:56:27 11° NW 19:56:27 11° NW visible
